Volver al catálogo

COSMOS 2251 DEB

ActivoLEO
NORAD 36540·DEBRIS·🇷🇺 Russia

Lanzado Jun 16, 1993 desde Plesetsk Cosmodrome

Loading…

Próximos Pases (próximas 24 horas)

TLE

ActualizadoSource: Space-Track

Época: Sep 13, 2026, 17:42 UTC

1 36540U 93036BDA 26256.73767056  .00002554  00000-0  52685-3 0  9996
2 36540  74.0299  15.5860 0014833  16.1805 343.9831 14.60906267900232

Sigue COSMOS 2251 DEB en tiempo real con AllMySat

Download on the App Store